Weather History for Smyrna, TN

Change the Weather History Date:

Saturday, July 13, 2013

  Actual Average Record
Temperature  
Mean Temperature 74 °F -  
Max Temperature 86 °F 85 °F 97 °F (2011)
Min Temperature 61 °F 69 °F 61 °F (2013)
Cooling Degree Days 8    
Growing Degree Days 24 (Base 50)    
Moisture  
Dew Point 63 °F    
Average Humidity 69    
Maximum Humidity 90    
Minimum Humidity 46    
Precipitation  
Precipitation 0.00 in - - ()
Sea Level Pressure  
Sea Level Pressure 30.04 in    
Wind  
Wind Speed 2 mph (NE)    
Max Wind Speed 9 mph    
Max Gust Speed -    
Visibility 10 miles    
Events      
Averages and records for this station are not official NWS values.
T = Trace of Precipitation, MM = Missing Value Source: NWS Daily Summary

Daily Weather History Graph

Daily Weather History Graph

Search for Another Location

Airport:

Trip Planner

Search our weather history database for the weather conditions in past years. The results will help you decide how hot, cold, wet, or windy it might be!

Date:

Astronomy

Jul. 13, 2013 Rise Set
Actual Time 5:39 AM CDT 8:03 PM CDT
Civil Twilight 5:10 AM CDT 8:33 PM CDT
Nautical Twilight 4:33 AM CDT 9:09 PM CDT
Astronomical Twilight 3:53 AM CDT 9:49 PM CDT
Moon 10:43 AM CDT (7/13) 10:56 PM CDT (7/13)
Length of Visible Light 15h 23m
Length of Day
14h 23m
Waxing Crescent, 26% of the Moon is Illuminated
Jul 13
Waxing Crescent
Jul 15
First Quarter
Jul 22
Full
Jul 29
Last Quarter
Aug 6
New

Hourly Weather History & Observations

Time (CDT) Temp. Heat Index Dew Point Humidity Pressure Visibility Wind Dir Wind Speed Gust Speed Precip Events Conditions
12:56 AM 66.9 °F - 59.9 °F 78% 30.03 in 10.0 mi Calm Calm - N/A   Clear
1:56 AM 63.9 °F - 59.0 °F 84% 30.03 in 10.0 mi Calm Calm - N/A   Partly Cloudy
2:56 AM 64.9 °F - 59.9 °F 84% 30.03 in 10.0 mi Calm Calm - N/A   Mostly Cloudy
3:56 AM 63.9 °F - 59.9 °F 87% 30.02 in 10.0 mi Calm Calm - N/A   Clear
4:56 AM 63.0 °F - 59.0 °F 87% 30.02 in 10.0 mi Calm Calm - N/A   Clear
5:56 AM 61.9 °F - 59.0 °F 90% 30.04 in 10.0 mi Calm Calm - N/A   Clear
6:56 AM 64.9 °F - 61.0 °F 87% 30.05 in 10.0 mi Calm Calm - N/A   Clear
7:56 AM 70.0 °F - 61.0 °F 73% 30.06 in 10.0 mi ENE 6.9 mph - N/A   Clear
8:56 AM 72.0 °F - 61.9 °F 70% 30.06 in 10.0 mi Calm Calm - N/A   Clear
9:56 AM 75.9 °F - 63.9 °F 66% 30.06 in 10.0 mi ENE 6.9 mph - N/A   Clear
10:56 AM 79.0 °F - 64.9 °F 62% 30.07 in 10.0 mi Calm Calm - N/A   Clear
11:56 AM 81.9 °F 83.2 °F 63.9 °F 54% 30.06 in 10.0 mi Calm Calm - N/A   Partly Cloudy
12:56 PM 84.9 °F 86.1 °F 63.9 °F 49% 30.06 in 10.0 mi ENE 6.9 mph - N/A   Scattered Clouds
1:56 PM 81.9 °F 83.1 °F 63.0 °F 53% 30.04 in 10.0 mi North 3.5 mph - N/A   Mostly Cloudy
2:56 PM 82.9 °F 85.0 °F 65.8 °F 56% 30.03 in 10.0 mi North 6.9 mph - N/A   Scattered Clouds
3:56 PM 86.0 °F 87.6 °F 64.9 °F 49% 30.01 in 10.0 mi NE 6.9 mph - N/A   Clear
4:56 PM 86.0 °F 86.8 °F 63.0 °F 46% 30.01 in 10.0 mi Calm Calm - N/A   Partly Cloudy
5:56 PM 86.0 °F 87.1 °F 63.9 °F 47% 30.01 in 10.0 mi Calm Calm - N/A   Clear
6:56 PM 84.9 °F 86.6 °F 64.9 °F 51% 30.02 in 10.0 mi NNE 9.2 mph - N/A   Partly Cloudy
7:56 PM 81.0 °F 83.8 °F 68.0 °F 65% 30.04 in 10.0 mi NE 9.2 mph - N/A   Scattered Clouds
8:56 PM 75.9 °F - 66.9 °F 74% 30.06 in 10.0 mi SSE 4.6 mph - N/A   Clear
9:56 PM 73.9 °F - 68.0 °F 82% 30.08 in 10.0 mi East 5.8 mph - N/A   Partly Cloudy
10:56 PM 72.9 °F - 66.9 °F 82% 30.09 in 10.0 mi Calm Calm - N/A   Partly Cloudy
11:56 PM 72.0 °F - 66.9 °F 84% 30.09 in 10.0 mi Calm Calm - N/A   Clear